Flag for Mexico Weather past 2 weeks in Mexicali, Baja California, Mexico

Now
88 °F

Sunny.


Feels Like: 88 °F
Forecast: 75 / 99 °F
Wind: 5 mph from Southwest

Location: Imperial County Airport

Current Time: Aug 23, 2014 at 11:09:36 AM

Latest Report: Aug 23, 2014 at 9:53 AM


Visibility: 10 mi

Pressure: 29.85 "Hg

Humidity: 40%

Dew point: 61 °F

Location of MexicaliLocation

Historic Weather in Mexicali — Graph

°F

Mexicali temperature yesterday

Maximum temperature yesterday: 94 °F (at 5:53 PM)
Minimum temperature yesterday: 70 °F (at 5:53 AM)
Average temperature yesterday: 81 °F

Past Weeks' High & Low Weather Summary

 TemperatureHumidityPressure
High111 °F (Aug 17, 3:53 PM)88% (Aug 21, 11:53 PM)29.94 "Hg (Aug 21, 11:53 PM)
Low70 °F (Aug 9, 6:53 AM)9% (Aug 8, 4:53 PM)29.61 "Hg (Aug 19, 5:53 PM)
Average91 °F42%29.80 "Hg
* Reported Aug 8 9:53 AM — Aug 23 9:53 AM, Mexicali, Weather by CustomWeather, © 2014

Note: Actual official high and low records may vary slightly from our data, if they occured in-between our weather recording intervals... More about our weather records

Advertising

Mexicali weather history for previous 24 hours

 ConditionsComfort  
Time TempWeatherWind HumidityBarometerVisibility
9:53 AM
Aug 23
88 °FSunny.5 mph40%29.85 "Hg10 mi
8:53 AM85 °FSunny.8 mph45%29.85 "Hg10 mi
7:53 AM80 °FSunny.5 mph52%29.84 "Hg10 mi
6:53 AM76 °FClear.7 mph54%29.83 "Hg10 mi
5:53 AM74 °FClear.6 mph57%29.83 "Hg10 mi
4:53 AM74 °FClear.7 mph57%29.82 "Hg10 mi
3:53 AM77 °FClear.9 mph48%29.81 "Hg10 mi
2:53 AM74 °FClear.7 mph53%29.81 "Hg10 mi
1:53 AM77 °FClear.9 mph45%29.81 "Hg10 mi
12:53 AM77 °FClear.7 mph48%29.81 "Hg10 mi
11:53 PM
Aug 22
78 °FClear.7 mph46%29.82 "Hg10 mi
10:53 PM78 °FClear.8 mph39%29.82 "Hg10 mi
9:53 PM81 °FClear.12 mph35%29.81 "Hg10 mi
8:53 PM84 °FClear.13 mph37%29.80 "Hg10 mi
7:53 PM85 °FSunny.13 mph36%29.78 "Hg10 mi
6:53 PM94 °FSunny.7 mph33%29.77 "Hg10 mi
5:53 PM94 °FSunny.9 mph33%29.78 "Hg10 mi
4:53 PM93 °FSunny.9 mph34%29.79 "Hg10 mi
3:53 PM91 °FSunny.3 mph37%29.80 "Hg10 mi
2:53 PM90 °FSunny.7 mph42%29.83 "Hg10 mi
1:53 PM88 °FSunny.6 mph46%29.86 "Hg10 mi
12:53 PM86 °FSunny.7 mph46%29.89 "Hg10 mi
11:53 AM84 °FSunny.5 mph55%29.91 "Hg10 mi
Weather by CustomWeather, © 2014

See weather overviewHow to use our weather pages